Location: Arrodets-la-Barthe
(43.0306°N, 0.2829°E)
Time: 08:15:30
(UTC+00:00)

CUBEBUG 2 - Pass Details

Date: 01 April 2023
Orbit: 577 x 685 km, 97.8° (Epoch: 03 June)

Event Time Altitude Azimuth Distance (km) Brightness Sun altitude
Rises 01:43:43 0° 23° (NNE) 3,063 ? -37.4°
Reaches altitude 10° 01:46:17 10° 36° (NE) 2,135 ? -37.1°
Enters shadow 01:48:02 19° 52° (NE) 1,602 ? -37.0°
